Theta_e
320 322 322 323 324 323 323 324 325 327 328 328 327 326 327 326 325 325 320 314 314 317 318 319 320 319 318 318 318 320 318 316 317 317 317 317 317 318 318 319 320 318 316 316 315 314 314 314 315 315 314 315 315 315 315 315 315 316 316 317 318 318 319 321 322 322 322 323 324 324 324 324 324 323 321 322 323 324 326 326 326 326 325 325 325 325
321 324 324 323 323 323 323 324 325 326 327 326 326 326 326 326 325 322 318 314 313 317 320 321 320 319 319 318 318 319 318 317 317 317 317 317 317 318 318 319 319 317 315 315 315 314 314 314 314 315 314 314 315 315 315 315 315 315 315 315 315 316 317 319 320 321 322 322 322 323 323 324 324 323 322 322 323 324 326 326 326 326 326 325 325 324
322 324 324 322 323 323 323 324 325 326 326 325 326 325 325 326 324 320 316 313 312 315 320 320 318 318 318 318 319 319 319 319 318 317 317 317 317 318 318 318 319 318 316 315 315 315 315 314 314 314 314 314 314 314 314 314 315 314 315 315 315 315 315 316 317 319 320 320 320 321 322 323 323 323 323 322 322 323 325 326 326 326 326 326 327 326
324 324 323 323 323 323 324 324 325 326 326 326 326 326 326 325 324 323 318 314 314 315 317 317 316 316 317 318 318 318 319 319 318 318 317 317 317 318 318 318 318 317 316 316 316 316 315 315 314 314 314 314 314 314 314 314 314 314 314 315 315 315 314 314 315 316 317 319 320 320 321 322 322 323 323 323 323 323 323 324 325 326 326 327 327 327
323 323 323 324 323 323 325 325 325 326 325 327 327 326 326 324 323 322 317 314 314 314 314 315 317 319 320 321 320 319 319 319 319 318 317 317 317 316 317 317 317 317 316 316 316 316 316 315 315 315 315 315 314 315 314 314 314 314 314 314 314 315 314 314 314 314 315 316 317 319 321 322 323 323 323 323 323 322 322 323 324 325 325 325 325 326
322 322 323 323 323 324 325 325 325 326 326 327 327 326 326 325 323 321 317 317 319 319 314 314 319 322 322 322 322 322 321 320 320 319 318 317 317 316 316 316 316 316 316 317 316 316 316 316 316 316 315 315 315 316 315 315 315 314 314 314 314 314 314 314 314 314 314 314 315 316 318 319 321 322 322 322 322 321 321 321 322 323 324 324 324 324
320 321 323 322 323 324 324 324 324 325 326 327 326 324 325 325 323 321 320 321 324 323 315 312 319 322 320 321 321 321 321 321 321 320 318 318 318 317 316 316 316 317 317 317 317 317 316 317 317 317 316 316 316 317 316 316 315 315 314 314 313 313 313 313 313 314 313 313 314 314 315 315 316 317 318 319 320 320 320 321 321 321 322 322 322 323
318 321 323 323 323 323 324 325 324 324 326 327 324 323 324 324 323 322 321 323 323 321 317 314 316 319 319 319 320 319 319 320 320 319 318 318 318 317 317 317 316 317 317 318 318 317 317 317 317 317 317 317 317 316 316 316 315 315 315 314 314 314 313 313 313 314 313 313 314 314 314 314 314 314 315 317 318 318 318 320 321 321 320 320 321 322
317 320 322 322 324 324 324 324 323 323 325 324 321 322 323 323 323 322 322 324 321 320 323 319 315 319 321 319 319 319 318 319 319 319 319 318 318 317 317 317 317 317 317 317 318 318 318 317 317 317 317 317 316 316 316 315 315 315 315 315 314 314 314 313 313 313 313 313 313 314 314 314 314 314 314 315 316 316 316 317 319 320 319 319 319 320
317 319 321 322 323 323 324 324 323 323 323 320 319 321 321 321 322 321 323 324 321 320 325 323 317 320 323 320 320 320 318 318 319 319 320 320 319 318 317 317 317 317 317 317 317 318 318 318 317 317 317 317 316 316 316 315 315 315 315 315 315 314 314 314 314 314 313 313 313 313 314 314 314 314 314 315 315 315 315 315 316 319 318 318 318 318
315 316 319 321 321 323 323 322 323 322 320 320 320 321 321 321 320 320 321 321 323 324 324 324 319 318 322 322 320 321 319 318 319 320 321 322 321 320 318 317 317 317 316 316 316 316 317 317 317 317 317 317 316 316 316 315 315 315 315 315 314 315 314 314 314 314 314 313 313 313 313 313 313 314 314 314 315 315 315 315 316 317 317 317 317 317
314 317 319 318 318 321 321 319 319 319 319 320 322 322 323 322 320 321 320 319 325 327 322 321 320 318 321 322 320 320 318 317 319 320 320 321 321 321 320 318 317 316 315 315 315 315 315 315 315 315 315 315 315 315 315 315 315 315 315 315 315 315 314 314 314 314 314 314 313 313 313 313 313 313 314 314 314 314 314 315 316 317 317 316 317 317
317 318 317 316 316 319 321 320 318 317 318 321 322 323 325 324 322 326 324 321 326 326 317 315 318 318 320 320 319 319 318 317 318 318 319 320 320 320 319 318 317 315 315 315 314 314 314 313 313 313 314 314 314 314 313 314 314 314 314 315 315 315 314 314 314 314 314 314 313 313 313 313 313 313 314 314 314 314 315 315 316 318 316 315 315 315
317 316 314 315 316 317 321 322 319 316 316 320 322 324 326 324 325 329 327 324 326 322 313 312 316 318 319 318 318 318 318 319 318 317 318 318 318 317 316 316 315 314 314 313 313 313 313 313 313 313 313 313 313 313 313 313 313 313 314 313 314 314 314 314 314 314 314 313 313 313 313 313 312 312 314 315 315 315 315 315 316 317 315 314 314 314
321 319 316 317 317 317 320 322 321 316 316 319 321 323 324 324 327 329 327 326 325 318 312 314 319 321 319 317 316 315 316 317 316 315 315 315 315 315 314 314 313 313 313 313 313 314 314 315 315 314 313 313 313 313 313 313 313 313 313 313 313 313 314 314 314 314 314 313 313 313 313 312 312 313 314 316 317 316 316 317 317 316 315 314 314 313
322 320 316 315 316 317 320 321 319 316 317 320 319 322 324 323 324 323 320 320 320 318 315 315 318 320 318 316 315 315 316 315 315 314 314 314 314 313 314 314 314 314 314 315 314 315 315 315 314 314 314 313 313 313 313 313 313 313 313 313 314 313 313 313 313 313 313 313 313 313 312 312 312 314 315 316 317 316 316 317 317 316 316 316 315 315
323 319 313 313 315 316 319 320 318 319 321 320 320 322 322 320 321 321 318 315 316 322 322 316 316 318 317 318 318 317 316 315 316 315 314 314 314 313 313 313 314 315 314 314 313 313 313 313 313 313 313 314 314 313 313 313 313 313 313 313 314 313 313 313 312 312 312 312 312 312 312 312 312 314 315 315 316 316 317 317 317 317 317 317 317 317
323 316 311 313 315 314 315 318 318 319 320 319 321 322 318 317 318 318 320 319 318 324 323 318 318 319 318 320 319 318 318 317 317 316 316 315 314 315 314 312 313 313 312 312 312 312 312 312 312 312 312 313 314 313 313 313 313 313 313 313 313 313 313 313 312 311 311 310 311 311 311 311 312 313 313 314 315 316 317 317 317 317 317 317 318 319
320 315 311 311 314 313 312 316 319 317 315 316 319 319 318 320 320 318 321 321 321 325 324 319 318 318 318 319 318 318 318 318 318 318 317 316 315 315 314 313 314 313 312 312 311 311 312 312 312 312 312 313 313 313 312 312 313 312 313 313 313 313 313 312 312 311 311 310 310 311 311 311 311 312 312 313 314 315 316 316 315 316 316 317 318 319
319 317 313 310 312 313 312 316 319 318 315 313 315 317 318 320 320 320 321 321 321 324 324 321 318 317 319 319 319 318 316 316 317 317 317 317 317 316 315 315 314 313 312 311 311 311 311 312 312 312 312 312 312 312 312 312 312 312 313 313 313 313 313 313 313 312 312 311 311 311 311 312 312 312 312 312 313 313 314 314 314 314 315 316 318 320
318 318 314 310 311 313 314 316 318 319 317 314 315 317 318 316 316 318 319 319 320 322 323 323 321 319 318 319 320 319 317 317 317 317 318 319 318 316 315 314 312 311 311 311 311 312 312 312 312 312 312 312 312 312 312 312 312 312 312 312 312 312 312 312 312 312 312 312 312 312 312 312 312 312 312 312 312 312 312 312 313 313 314 316 318 321
318 317 314 311 311 314 315 314 315 316 317 316 316 317 318 317 316 319 321 319 317 318 319 320 321 320 317 317 319 319 318 318 318 319 319 319 317 316 314 313 311 311 311 311 311 311 312 312 312 312 312 312 312 312 312 312 312 312 312 312 312 311 311 311 311 311 312 312 312 312 312 312 312 312 312 312 312 312 313 313 313 314 315 317 319 321
316 315 313 312 313 314 313 311 311 312 315 316 316 316 318 317 316 320 323 320 316 316 315 315 318 319 316 316 317 318 318 317 316 316 317 317 315 314 314 312 311 311 311 311 311 311 311 312 312 312 312 312 312 312 312 312 312 311 311 311 311 311 311 311 311 311 311 311 312 311 311 311 311 311 311 311 311 311 312 313 313 314 316 317 319 321
315 315 313 313 312 311 310 310 310 310 312 316 317 316 317 318 318 319 318 316 316 317 316 317 320 319 316 316 317 316 316 314 313 312 313 313 313 312 312 311 311 311 311 311 311 311 311 311 312 312 312 312 311 311 311 311 311 311 311 311 311 311 311 311 312 312 312 312 312 312 312 312 312 312 311 311 311 310 311 311 312 314 315 317 319 321
317 316 315 314 313 313 312 312 312 311 312 314 316 317 317 318 319 317 313 313 316 318 318 320 322 321 316 315 314 314 314 313 312 311 310 311 313 313 311 310 311 311 310 311 311 311 311 311 311 311 311 311 311 311 311 311 311 311 311 311 311 311 311 311 311 312 311 312 312 312 312 312 312 312 312 312 311 311 310 311 311 312 313 315 318 320
317 316 315 315 315 315 315 314 314 313 312 313 314 316 316 317 318 316 314 315 317 318 318 318 320 319 314 312 313 312 313 312 312 311 310 311 313 313 311 310 311 311 310 310 311 311 311 311 311 311 311 311 311 311 311 311 311 311 311 311 311 311 311 311 311 311 311 311 312 312 312 312 312 312 312 312 312 311 311 310 310 311 311 313 316 319
317 316 315 316 316 316 316 316 315 314 313 313 314 315 315 316 317 316 316 317 317 318 318 318 318 319 315 312 313 313 312 312 312 312 312 311 311 311 310 310 311 310 310 310 310 311 311 311 311 311 311 311 311 311 311 311 311 311 311 311 311 311 311 311 311 311 311 311 311 311 312 312 312 312 312 312 312 312 311 310 310 310 311 312 314 317
317 316 316 316 316 316 316 316 314 314 314 314 314 315 315 315 317 317 317 318 318 319 320 319 318 320 318 314 313 314 313 313 313 312 312 312 311 310 310 311 311 310 310 310 311 311 311 311 311 311 311 311 311 311 311 311 311 311 311 311 311 311 311 311 311 311 311 311 311 311 311 312 312 312 313 313 312 312 311 311 310 310 310 311 311 314
316 317 317 317 317 317 317 316 315 314 314 314 313 313 314 315 316 317 317 317 318 320 320 320 319 320 318 315 314 314 314 314 313 312 312 312 311 310 311 311 311 311 311 311 311 311 311 311 311 311 311 311 311 311 311 311 311 311 311 311 311 311 311 311 312 311 311 311 311 311 311 311 312 312 312 313 312 312 311 310 310 310 310 310 310 312
316 317 317 317 318 318 316 315 315 314 314 314 313 313 314 314 315 315 315 316 317 318 318 319 320 320 318 317 315 314 314 314 312 311 311 311 311 311 311 312 312 312 312 311 311 311 311 312 312 311 311 311 311 311 311 311 311 311 311 311 311 311 311 311 312 312 311 311 311 311 311 311 311 312 312 313 313 312 311 310 310 309 309 309 309 310
317 318 318 317 318 317 314 314 316 316 316 315 314 314 314 314 315 315 315 315 316 317 317 318 319 319 318 318 316 315 315 313 312 311 311 310 311 311 311 311 312 312 313 312 311 311 311 312 312 311 311 311 311 311 311 311 311 311 311 311 312 311 311 311 312 312 311 312 311 311 311 311 311 311 312 313 313 312 312 311 309 309 309 311 311 311
316 318 319 317 318 317 313 313 316 316 316 316 315 315 314 314 314 314 315 315 316 316 317 318 318 318 317 317 316 316 315 313 313 313 312 311 311 311 311 311 312 313 313 313 313 312 312 312 312 311 311 311 311 311 311 311 311 312 312 312 312 311 311 311 311 311 311 311 311 311 311 311 311 311 312 312 313 313 312 311 310 309 310 313 315 315
315 316 317 317 318 317 313 313 314 314 315 315 315 315 314 314 314 315 315 315 315 316 316 317 317 317 316 316 316 315 315 314 314 314 314 313 313 313 313 313 313 313 313 313 313 313 312 312 312 312 311 311 311 311 311 311 311 312 311 312 312 312 312 312 311 311 311 311 311 311 311 311 311 311 312 312 313 312 312 311 310 309 310 314 317 319
315 315 315 316 317 315 313 314 314 314 315 316 316 315 314 314 314 315 315 315 314 315 315 316 316 316 315 315 315 315 315 314 314 314 314 314 314 314 314 314 314 313 313 313 313 312 312 312 312 312 312 311 311 311 311 311 311 311 311 311 312 312 312 312 311 311 311 311 311 311 311 311 311 311 311 312 312 312 312 311 310 309 310 313 316 317
315 315 314 316 316 313 312 314 315 314 315 316 316 315 314 314 314 315 315 315 314 315 315 315 315 315 315 315 315 315 315 314 314 314 313 313 313 313 314 313 313 313 313 313 313 312 312 312 312 312 312 311 311 311 311 311 311 311 311 311 311 311 311 311 311 311 311 311 311 311 311 311 311 310 311 311 312 312 311 311 311 310 310 311 313 315
315 315 314 315 315 312 311 314 316 316 316 316 317 315 314 314 314 315 316 315 314 315 315 315 315 315 315 315 314 314 314 313 313 313 313 313 313 313 313 313 313 313 313 312 312 312 312 312 312 312 311 311 311 310 311 311 310 311 311 311 311 311 311 311 311 311 310 310 310 311 311 311 311 311 310 310 311 311 311 311 311 311 311 311 312 314
314 314 315 315 314 313 313 313 316 317 317 316 315 314 314 314 314 315 316 315 314 315 315 315 314 315 315 314 313 312 312 312 312 312 312 312 313 312 313 313 312 312 312 312 312 312 312 312 312 311 311 311 311 311 311 311 311 311 311 311 311 311 311 311 311 311 311 311 311 311 311 311 310 310 310 310 310 311 311 311 310 310 311 311 312 313
314 314 316 316 314 314 314 314 315 317 317 317 315 314 314 314 314 315 315 315 315 315 315 315 314 314 315 314 311 310 311 312 313 313 313 313 313 312 312 312 312 312 312 312 312 312 312 312 312 311 311 311 311 311 311 311 311 310 311 311 311 311 311 311 311 311 311 311 311 311 311 310 310 310 310 310 310 310 310 310 310 309 310 310 311 312
314 313 315 316 314 314 314 314 315 316 317 318 317 315 314 314 315 315 314 315 316 315 315 315 314 314 315 314 311 311 312 313 313 314 314 313 313 313 313 312 312 312 312 312 312 312 312 312 311 311 311 311 311 311 310 310 311 311 311 311 311 311 311 311 310 310 311 310 311 310 310 310 310 310 310 310 310 310 309 310 309 309 309 309 309 309
311 312 313 314 314 314 315 315 315 316 318 318 318 316 314 314 314 315 315 316 316 315 315 314 314 315 315 313 312 312 312 313 313 314 313 313 313 313 313 313 312 312 312 312 312 311 311 311 311 311 311 311 311 310 311 311 311 311 311 311 311 311 311 310 310 310 310 310 310 310 310 310 310 310 309 309 309 309 309 309 309 309 309 308 308 308
311 312 312 313 314 314 315 316 316 316 318 318 317 315 314 314 315 315 316 317 316 316 315 314 314 315 314 313 312 312 313 313 313 313 313 313 313 313 312 312 312 312 311 311 311 311 311 310 310 310 311 310 310 311 311 311 311 311 311 310 310 310 310 310 310 310 310 309 309 309 309 309 309 309 309 309 309 309 309 309 309 309 308 308 308 307
312 312 312 313 314 314 315 316 316 317 317 315 314 314 313 314 315 315 315 315 316 316 315 315 315 314 314 313 313 312 313 313 313 312 312 312 312 312 312 311 311 311 311 311 311 311 311 311 310 310 310 311 311 311 311 311 310 310 310 310 310 310 310 309 309 309 309 309 309 309 309 309 309 309 309 309 309 309 309 309 309 309 308 308 308 307
313 313 313 313 314 314 314 316 317 319 317 314 313 313 314 315 315 315 313 313 314 314 314 315 315 314 314 314 313 313 313 313 312 312 312 311 311 311 311 311 310 310 310 310 311 311 311 310 310 310 311 311 311 311 310 310 310 310 310 310 310 309 309 309 309 309 309 309 309 309 309 309 309 309 310 309 309 309 309 309 308 308 308 308 308 307
313 313 313 313 313 314 315 316 317 317 315 313 313 313 313 314 313 313 314 312 312 312 313 314 314 314 314 313 313 313 313 312 312 312 311 311 311 311 310 310 310 310 310 310 311 311 310 310 311 311 311 311 310 310 310 310 310 310 310 309 309 309 309 309 309 309 309 309 309 309 309 309 309 309 309 309 309 309 309 309 308 308 308 308 307 307
313 313 313 313 313 313 315 315 313 312 311 313 313 313 313 313 312 312 314 313 312 312 312 312 313 313 312 313 313 313 312 312 312 311 311 311 310 310 310 310 310 310 310 310 311 310 310 311 310 310 310 310 310 310 310 309 310 309 309 309 309 309 309 309 309 309 309 309 309 309 308 308 308 308 308 308 309 308 308 308 308 308 307 307 307 307
312 311 312 313 312 313 313 313 312 310 310 311 313 313 313 313 312 311 312 313 313 312 312 312 312 312 312 312 312 311 312 312 312 311 310 310 310 310 310 310 309 309 310 310 310 310 310 310 310 310 310 310 310 309 309 309 309 309 309 309 309 309 309 309 309 308 309 308 308 308 308 308 308 308 308 308 308 308 308 308 308 307 307 307 307 306
311 311 312 312 313 313 313 313 312 310 309 310 311 312 312 313 312 312 312 311 311 312 312 312 312 312 312 312 311 311 312 312 311 311 310 310 309 309 309 309 309 309 310 310 310 310 310 310 310 310 310 310 309 309 309 309 309 309 309 309 309 309 308 308 308 308 308 308 308 307 307 307 307 307 307 307 307 307 307 307 307 307 307 307 306 306
311 311 312 312 313 313 314 314 313 311 309 310 311 311 311 311 312 312 311 311 310 311 311 311 311 311 311 311 312 312 311 311 311 310 310 310 309 309 309 309 309 309 310 310 310 310 310 309 310 309 309 309 309 309 309 309 309 309 309 309 309 308 308 308 308 308 308 307 307 307 307 307 307 307 307 307 307 307 307 306 306 306 306 306 306 305
310 311 312 312 312 313 313 313 313 311 310 309 310 310 310 310 311 311 311 311 311 311 311 311 311 311 311 311 312 311 311 312 311 310 310 310 309 309 309 309 309 309 310 310 309 309 309 309 309 309 309 309 309 309 309 309 309 309 309 309 308 308 308 308 308 307 307 307 307 307 307 307 307 306 306 306 306 306 306 305 305 305 305 305 305 304
310 311 311 312 313 313 313 312 313 313 311 310 309 309 310 310 311 311 311 312 311 311 311 311 311 311 310 311 311 311 311 311 310 310 310 310 309 309 309 309 310 309 309 309 309 309 309 309 309 309 309 309 309 309 309 309 308 309 308 308 308 308 308 308 307 307 307 307 306 307 306 306 306 306 305 305 305 305 305 305 304 304 304 304 304 303
311 312 311 311 313 313 313 313 312 312 312 311 310 310 311 311 311 311 311 311 312 311 311 311 311 311 310 310 311 310 310 310 310 310 310 309 309 309 309 309 309 309 309 309 309 309 309 309 309 309 309 309 308 309 309 308 308 308 308 308 308 308 307 307 307 306 306 306 306 306 306 306 305 305 305 305 304 304 304 304 303 303 303 302 302 302
Wind_Speed
11 6 6 7 9 12 12 13 14 12 10 8 8 7 8 7 5 5 5 6 5 5 8 12 13 13 12 11 14 16 11 10 11 13 14 13 12 12 12 13 14 16 16 16 19 20 19 19 19 19 19 20 21 21 22 23 24 24 26 27 28 29 30 31 32 32 33 32 32 32 32 33 34 34 33 32 31 30 30 29 27 27 26 25 26 26
10 8 8 10 12 14 15 16 16 14 10 9 8 5 6 7 4 3 5 6 5 4 7 11 12 13 13 11 13 16 12 11 14 14 15 16 15 14 13 14 15 16 15 14 17 19 19 20 20 20 19 20 21 21 22 23 23 23 24 27 27 29 30 32 33 34 34 35 34 34 33 33 34 35 34 33 33 31 31 31 30 29 28 27 27 28
8 9 11 13 13 15 15 15 14 14 11 8 6 5 6 6 4 2 5 6 5 4 6 7 9 11 12 13 14 17 16 16 17 15 16 16 15 15 14 13 13 16 18 17 17 17 18 20 21 22 22 21 21 21 22 23 24 24 25 26 27 28 30 32 33 34 35 36 35 34 34 34 34 34 35 34 34 32 31 32 32 32 31 30 30 29
7 8 14 16 15 15 15 14 14 13 12 9 7 7 6 6 6 4 5 7 6 5 5 6 7 9 11 12 13 18 20 20 18 16 16 16 16 16 15 13 13 16 19 19 19 18 17 19 21 23 23 22 22 23 24 25 25 27 27 27 27 28 29 30 32 33 34 35 35 35 35 35 35 34 35 35 35 34 33 33 34 34 34 33 33 31
7 8 17 19 16 17 15 15 16 12 10 11 11 10 6 7 7 3 3 5 6 6 5 6 7 8 11 14 13 15 19 21 21 19 17 16 17 20 19 18 20 21 21 21 20 20 20 19 20 21 22 22 23 24 25 25 26 27 28 28 28 28 29 29 30 31 31 32 34 35 36 35 34 34 35 37 37 37 36 35 35 34 34 34 33 32
8 13 20 18 15 18 15 13 16 13 9 11 13 12 9 6 6 3 3 3 5 5 3 3 6 4 5 10 11 10 14 17 19 20 19 17 18 22 23 24 26 26 25 23 21 21 22 21 20 21 21 22 23 23 23 24 25 27 27 27 28 28 29 30 30 30 29 30 33 35 37 37 36 37 38 39 39 38 38 37 36 35 35 34 33 32
5 15 19 16 14 16 14 12 14 14 10 10 9 12 12 7 4 4 4 3 4 2 2 2 5 5 3 5 6 7 10 14 15 16 18 19 19 20 23 27 29 28 27 26 23 21 22 23 23 23 24 24 24 23 24 24 26 27 28 28 28 29 29 30 30 31 30 30 32 34 35 37 38 39 40 40 39 38 38 37 36 36 36 35 34 32
6 15 16 17 16 13 12 11 12 15 12 5 3 9 13 8 5 5 4 5 3 4 2 3 3 6 7 5 6 7 9 12 13 13 14 18 20 20 22 27 31 30 29 29 27 25 24 24 24 24 25 25 24 25 27 26 26 27 29 30 30 30 30 31 31 31 31 31 32 33 34 35 37 38 39 39 38 38 38 36 35 36 36 35 34 33
7 15 15 16 15 11 11 11 13 17 11 1 4 6 9 7 5 4 4 5 2 4 5 5 3 5 7 4 5 8 10 12 14 15 14 17 20 21 23 28 32 33 32 31 30 29 27 26 26 25 26 26 26 27 27 27 27 27 29 31 32 32 31 31 31 31 32 32 32 34 35 36 37 38 38 37 37 37 37 37 36 36 36 36 34 33
4 11 15 16 12 9 11 10 14 17 8 2 5 6 5 3 2 2 4 4 2 4 7 5 5 4 7 5 5 7 10 12 12 12 14 18 21 21 24 30 34 34 33 32 31 31 31 30 29 28 29 29 29 29 28 27 27 28 29 30 32 33 33 32 32 33 33 33 33 34 35 36 38 39 39 37 36 35 35 36 36 36 36 36 35 33
3 7 11 10 8 10 11 6 9 12 9 9 8 7 6 3 2 1 2 1 3 6 6 7 8 4 5 5 5 6 5 7 9 10 12 16 19 20 21 26 30 30 31 31 30 31 32 32 31 31 31 31 31 31 31 30 29 29 30 31 32 33 34 34 35 35 34 34 34 35 35 36 38 39 40 39 38 36 34 34 34 34 35 35 34 33
6 8 7 4 4 9 11 6 3 7 11 10 7 6 5 3 2 2 2 1 5 6 2 5 9 9 8 4 3 2 1 4 8 8 9 10 14 17 17 21 25 26 26 27 26 26 27 27 26 26 27 28 29 29 29 30 29 29 30 32 33 33 34 36 37 37 36 35 36 36 36 36 37 38 39 40 40 38 36 35 33 32 33 33 33 33
7 6 4 5 4 9 11 8 3 4 6 7 6 7 6 4 2 5 5 3 7 5 2 3 4 7 10 7 8 9 7 9 9 8 10 10 12 13 9 11 17 20 21 21 20 19 18 18 18 19 20 21 23 24 24 25 26 27 28 31 33 34 35 36 38 39 37 36 36 37 37 37 36 37 38 38 39 38 37 36 34 33 33 33 33 33
5 1 2 6 6 11 12 10 6 4 5 6 7 7 6 5 4 7 7 5 5 2 4 4 2 6 8 5 11 15 12 12 12 12 13 13 12 10 7 9 12 14 15 15 15 15 14 15 16 17 17 18 19 19 20 20 21 23 25 28 30 33 35 38 39 39 38 37 36 36 37 37 37 37 36 36 36 37 37 37 36 35 35 35 35 34
8 2 7 10 7 11 14 10 8 8 6 7 6 6 6 6 5 5 5 5 3 3 4 4 2 5 3 1 4 8 7 9 9 10 10 11 13 15 17 19 18 16 15 15 16 17 17 18 19 19 18 18 19 18 19 19 19 20 22 25 27 30 33 37 40 40 39 39 38 37 37 37 37 36 35 33 32 34 36 36 36 35 35 35 35 33
8 2 6 7 5 13 16 10 11 13 7 7 7 8 8 7 5 2 1 1 0 1 4 6 4 5 3 4 6 6 6 9 9 8 9 10 13 16 20 23 22 21 19 18 19 19 20 20 20 21 21 21 20 19 19 19 20 20 21 23 25 27 28 32 37 39 40 40 40 39 38 37 36 35 33 31 31 33 34 34 35 35 34 34 33 32
9 2 4 5 4 13 14 10 15 15 7 6 9 9 4 1 4 4 2 2 1 6 5 6 4 5 3 7 9 9 8 9 9 8 9 10 9 10 14 18 19 18 16 16 17 18 18 20 21 22 22 23 23 21 20 21 21 20 20 20 22 24 26 28 31 35 38 39 39 39 38 36 35 34 33 31 31 32 32 32 34 34 33 33 32 30
10 3 2 4 6 9 5 5 14 11 3 5 9 8 5 4 3 4 3 2 3 7 4 5 7 5 3 4 6 12 13 11 11 9 9 9 9 9 12 13 11 10 11 13 15 16 17 18 20 20 21 24 25 24 23 23 23 22 20 19 20 21 23 24 26 29 31 33 34 34 34 34 34 33 32 31 31 31 31 32 33 33 33 32 31 29
9 5 2 2 5 7 3 5 11 7 1 2 4 6 5 2 4 5 4 3 4 7 5 4 7 7 7 5 4 9 14 13 11 11 10 10 9 9 10 9 7 9 12 14 15 16 16 16 16 17 19 21 24 25 25 23 22 20 19 18 17 17 18 19 21 23 25 27 29 30 31 32 32 32 32 31 31 32 33 34 34 33 32 31 30 29
8 6 2 2 3 7 5 6 9 8 4 1 1 6 6 4 3 5 5 3 3 6 5 3 4 5 8 9 7 8 10 9 9 8 10 12 11 10 8 7 8 11 12 14 15 16 15 14 15 15 16 16 18 20 21 21 19 17 15 14 13 14 14 15 17 18 20 21 23 26 27 28 29 30 31 31 32 33 34 34 34 33 32 31 29 29
7 5 5 5 4 6 8 7 9 12 10 6 6 9 7 3 1 2 5 4 3 5 5 5 6 3 3 7 10 12 9 8 7 4 5 8 8 8 7 7 9 11 11 13 13 13 13 13 13 14 14 13 13 14 15 15 15 14 13 12 12 12 12 13 14 15 16 17 19 21 22 24 26 27 29 30 31 32 33 33 34 34 33 31 30 30
6 6 8 8 6 8 7 3 2 5 9 10 9 8 9 7 4 3 6 6 5 4 3 4 6 3 3 4 7 10 9 6 4 4 5 5 6 6 6 7 9 10 10 10 10 10 10 10 10 10 10 10 10 10 11 11 12 11 11 11 11 11 11 11 12 13 14 15 17 18 19 21 23 25 27 28 29 30 31 32 33 33 33 32 32 31
2 5 8 7 6 6 3 3 3 3 3 8 9 8 9 8 8 8 7 4 4 3 1 3 7 3 3 4 5 6 4 2 2 1 3 2 2 3 4 7 9 8 7 7 7 7 7 7 7 6 6 6 6 7 8 8 9 9 9 9 9 9 9 10 10 11 12 13 14 15 16 18 19 21 23 25 27 28 29 30 30 31 32 32 32 31
3 5 7 6 4 3 5 3 0 3 1 7 11 11 11 11 12 9 3 1 4 5 4 4 8 4 3 1 1 2 2 3 2 1 1 1 4 6 7 8 8 7 5 5 4 4 5 5 5 4 4 4 4 5 5 6 7 7 8 7 7 7 7 8 9 10 11 12 12 13 14 16 17 18 19 21 23 24 26 27 28 29 30 30 30 30
5 6 7 7 5 4 4 4 5 4 6 9 10 12 12 14 13 5 1 1 4 6 7 7 9 6 3 1 1 0 2 2 2 2 2 4 6 6 7 8 8 6 5 4 4 5 6 5 5 4 3 3 3 3 3 4 5 5 6 6 5 5 6 7 8 9 10 11 12 13 14 15 15 17 18 18 20 21 22 24 26 28 29 29 30 29
6 6 7 8 9 9 9 7 7 7 8 6 8 11 12 12 13 7 2 4 6 6 7 8 9 5 1 1 3 4 5 4 3 3 3 5 6 6 6 8 9 7 6 6 7 8 8 8 7 5 5 3 2 1 2 3 4 4 5 5 5 5 6 7 8 9 10 12 12 13 14 14 15 16 17 18 18 19 21 22 24 26 27 28 28 28
3 4 7 7 9 10 7 4 6 8 8 9 12 13 11 11 12 8 4 8 10 6 6 10 14 11 4 5 7 7 6 6 5 5 5 7 8 8 7 9 9 8 8 8 10 11 11 10 7 5 4 1 2 3 5 6 6 6 6 6 7 7 7 8 9 10 11 12 13 14 14 15 16 17 18 18 19 19 20 22 23 25 26 27 28 27
2 5 10 10 12 10 5 6 10 12 12 15 15 14 14 15 14 10 10 14 12 7 10 15 19 18 10 8 10 10 9 8 6 7 7 6 7 7 8 8 8 8 8 9 10 11 10 9 6 4 2 2 4 7 8 9 9 9 8 9 9 10 9 10 11 12 13 13 14 14 15 16 17 18 18 18 19 19 20 21 22 24 25 26 27 27
2 7 13 12 14 11 4 7 13 13 13 15 17 17 17 18 18 16 16 17 13 11 14 13 14 18 14 9 10 9 9 9 8 9 9 7 6 7 8 8 7 7 8 9 9 10 10 8 6 5 5 5 6 9 11 11 11 10 11 12 12 12 12 12 13 14 14 14 14 15 16 17 18 19 19 19 19 19 19 20 21 22 23 24 25 25
6 7 12 13 14 12 5 8 14 15 12 14 18 21 20 20 21 20 20 21 18 18 20 14 10 15 13 9 10 9 9 9 8 9 9 9 8 8 8 8 8 8 10 11 11 11 11 9 9 10 11 9 9 10 12 13 12 12 12 13 14 14 14 14 15 15 14 14 15 16 17 17 18 19 19 19 18 18 18 19 20 20 20 19 21 22
10 9 12 12 11 11 7 6 10 13 13 14 17 20 21 21 21 21 22 22 18 20 23 18 15 15 9 7 11 12 10 7 6 7 9 11 11 10 11 13 12 12 14 16 17 15 13 13 14 15 16 14 12 12 13 14 13 13 13 13 14 14 15 16 16 16 17 17 17 18 18 18 19 19 19 19 18 18 17 17 18 18 17 16 17 19
10 8 10 10 9 10 9 7 6 6 8 11 15 18 22 22 20 20 20 16 14 17 20 19 17 14 6 8 12 14 11 7 7 10 10 11 16 18 18 18 18 19 21 21 22 23 22 22 21 20 20 18 16 16 15 15 14 13 14 14 14 15 16 17 18 19 20 20 19 20 19 19 19 19 19 18 18 17 17 17 17 17 17 17 17 18
9 6 6 9 9 6 8 9 7 6 4 8 13 20 25 24 19 16 15 16 18 18 16 15 14 8 6 10 13 14 14 13 15 16 14 14 18 20 19 21 24 27 27 26 26 27 26 26 25 24 23 23 21 19 16 17 16 15 15 14 15 16 17 18 20 20 20 20 20 20 20 20 19 19 18 18 17 17 17 16 16 16 17 18 18 19
10 8 5 7 6 3 8 10 8 6 9 12 11 16 21 21 19 17 17 20 23 20 17 16 13 7 7 12 14 13 17 21 22 22 22 21 22 23 26 31 35 36 35 31 28 27 26 27 27 27 26 25 22 19 17 19 17 15 15 16 17 18 19 20 20 20 20 20 20 19 19 19 19 18 18 18 18 17 17 16 16 16 17 18 19 20
13 10 6 6 4 3 6 8 7 10 14 8 4 11 17 19 22 22 21 22 25 24 24 23 18 10 9 13 16 17 20 22 22 24 26 27 30 33 35 39 41 40 36 33 29 28 28 29 28 27 24 20 17 16 17 19 18 17 17 18 19 20 21 22 21 21 20 19 18 18 18 18 18 17 17 17 18 18 17 17 16 16 16 18 19 19
15 11 7 6 5 4 5 8 9 10 7 1 3 9 15 18 20 20 19 24 26 22 20 22 21 17 13 12 15 15 16 17 19 24 29 30 32 36 39 42 41 37 33 32 31 31 30 29 28 24 19 17 15 15 16 18 19 21 21 22 23 24 24 23 21 20 19 18 17 17 17 18 18 18 18 17 17 18 18 18 17 16 16 17 18 19
13 13 9 6 5 5 7 8 7 5 1 3 7 11 15 14 16 17 16 19 20 19 20 21 20 20 17 12 12 14 12 10 10 20 33 36 35 38 41 42 40 35 33 33 32 32 31 30 28 24 19 18 18 17 18 20 22 23 24 25 27 26 25 23 22 20 19 18 17 17 17 18 18 18 19 19 18 17 17 17 17 17 17 17 18 19
5 9 10 9 6 6 6 6 6 5 7 13 16 16 16 13 12 15 13 14 14 19 25 24 19 19 18 13 14 18 11 5 4 17 36 40 38 43 45 42 40 38 37 37 36 35 34 32 30 25 21 20 20 20 22 23 24 26 26 26 25 23 22 22 21 20 19 18 18 18 18 19 19 19 19 19 19 18 17 17 17 17 17 18 19 19
3 2 5 7 6 6 7 6 6 7 13 18 14 14 19 18 12 10 5 16 17 19 26 24 19 19 20 18 19 17 8 5 4 23 46 42 34 40 43 39 39 40 39 37 35 34 34 33 30 27 24 24 24 23 24 24 24 24 23 21 20 18 18 18 18 18 19 18 18 18 18 18 18 18 18 17 17 17 16 17 17 17 17 18 19 20
2 3 4 6 7 8 8 6 5 7 13 12 10 14 23 26 19 12 7 18 14 16 26 26 21 21 22 23 22 14 9 11 15 31 43 32 24 30 33 30 32 32 31 31 31 30 30 29 28 27 25 25 24 22 22 21 20 19 17 16 15 15 15 16 17 17 16 15 13 13 12 13 13 14 15 15 14 15 15 15 16 17 17 19 20 22
6 4 5 7 7 8 10 8 6 8 9 5 10 19 28 28 17 11 14 11 6 18 30 33 29 30 31 30 24 18 24 39 44 36 24 15 18 24 24 23 25 25 24 25 25 26 27 25 25 24 22 21 19 18 17 16 15 15 15 13 13 13 13 12 11 9 7 6 4 5 6 7 9 10 12 13 14 14 15 15 15 16 16 18 20 22
6 3 4 6 6 7 8 6 4 7 6 11 18 27 33 22 10 13 9 3 9 17 25 29 32 37 40 40 39 39 47 57 54 36 21 20 24 24 21 21 20 20 20 19 19 21 23 22 21 20 17 16 15 15 14 14 14 13 12 12 11 10 9 8 7 5 4 3 2 2 4 5 7 9 11 12 14 15 16 16 16 17 17 18 19 20
10 8 6 7 7 6 5 6 6 10 9 24 25 22 22 13 6 7 8 7 8 14 16 21 29 36 38 37 39 45 48 47 42 34 31 31 30 26 23 20 17 16 17 17 17 19 19 19 17 16 14 14 14 14 13 13 13 12 12 13 12 11 10 8 7 5 4 2 1 1 3 4 6 8 10 12 14 15 16 17 18 18 19 19 20 20
9 9 6 6 8 8 7 11 9 6 9 32 26 11 11 8 3 10 11 6 10 14 14 18 24 30 34 34 34 39 43 41 39 35 32 32 33 29 25 21 18 18 18 16 17 18 17 17 16 15 15 14 14 14 13 14 14 15 15 15 13 12 10 8 7 6 4 3 2 1 1 3 4 6 8 10 12 14 16 17 18 19 20 20 21 21
14 16 12 9 11 11 9 12 8 2 12 34 28 16 22 20 9 11 15 12 13 15 15 17 20 24 28 30 31 35 38 39 40 37 32 34 35 31 28 26 23 21 18 17 18 18 17 17 16 15 15 15 14 15 15 16 17 17 16 15 13 12 10 9 8 7 6 5 4 3 3 3 4 5 7 8 11 12 14 16 17 19 20 20 21 22
17 19 12 6 9 11 11 11 8 2 11 29 28 23 33 36 22 12 13 14 16 18 18 18 19 19 20 23 27 31 32 34 36 35 32 33 32 29 30 29 25 21 19 19 19 19 18 17 16 16 16 15 16 17 18 19 19 17 16 14 13 12 10 9 9 8 7 7 6 5 5 5 5 6 7 8 9 10 11 13 15 16 18 19 20 21
12 17 13 6 8 11 13 17 16 9 11 22 24 20 27 37 34 24 17 13 13 16 18 17 16 16 17 20 25 29 30 31 32 31 30 31 31 29 29 28 25 23 22 21 20 19 18 17 17 16 16 17 18 19 20 20 19 17 15 14 13 12 11 10 9 8 8 7 7 6 6 6 6 6 7 7 8 9 10 11 12 14 16 17 19 20
11 18 15 9 10 12 14 16 17 16 17 24 29 25 23 30 34 31 26 17 11 13 16 17 18 20 21 23 26 28 29 30 30 30 30 30 29 27 26 26 25 25 24 23 22 20 19 18 17 17 18 19 21 21 21 20 18 17 15 14 13 12 11 10 9 8 8 7 7 6 6 6 6 6 7 7 8 9 10 11 12 13 15 15 17 18
11 14 13 11 12 13 14 11 13 16 19 26 33 29 22 23 27 29 32 29 22 19 21 23 24 26 26 27 28 28 29 28 28 28 27 25 23 22 23 25 27 27 26 24 22 21 20 19 18 18 20 21 21 22 21 19 18 17 15 14 13 12 11 10 9 8 8 8 7 7 7 7 7 7 7 8 9 10 11 11 12 13 14 15 16 17
11 11 12 11 9 12 16 17 17 14 10 14 25 28 24 25 28 31 35 38 35 32 30 27 27 28 28 27 26 27 28 27 25 23 21 18 19 22 24 26 28 28 26 25 23 22 21 20 19 20 21 22 22 22 21 20 18 17 16 14 13 12 11 10 9 9 9 9 8 8 8 8 8 8 9 9 10 11 11 12 13 13 14 15 15 16
16 16 15 12 11 17 24 24 21 15 8 7 20 31 32 30 31 34 37 41 43 40 35 30 28 28 27 24 23 25 25 23 21 20 19 20 21 23 25 26 27 27 27 26 25 23 22 20 20 21 22 23 23 22 21 20 18 17 15 14 13 12 11 10 10 10 10 10 10 9 9 9 9 10 10 11 11 12 13 13 13 14 14 15 16 16
Wind_Direction
161 158 195 189 177 182 182 190 207 220 232 238 217 211 224 230 235 216 158 137 174 220 231 235 242 248 246 239 249 247 218 207 230 238 242 243 242 237 232 233 237 246 252 254 252 248 244 241 242 244 241 240 239 239 239 239 239 237 236 237 237 238 236 235 236 236 235 234 234 234 235 237 240 242 241 239 240 241 244 246 248 250 251 252 254 255
178 193 194 183 175 177 184 195 210 221 228 235 224 211 221 232 241 185 156 151 164 228 242 237 243 250 252 247 248 248 232 222 231 236 239 242 244 241 235 235 239 250 256 254 253 250 245 242 241 242 242 241 241 242 242 242 242 241 241 241 241 241 240 238 238 238 240 239 238 238 239 240 243 245 246 245 244 244 247 250 253 254 257 259 260 261
195 209 189 176 176 182 193 201 213 222 222 227 221 215 229 220 217 188 165 173 181 223 249 244 251 258 257 253 248 246 244 243 240 237 238 239 241 239 238 237 236 248 255 254 254 252 245 241 241 241 241 242 243 244 246 246 245 243 242 242 242 242 242 241 240 239 242 244 245 244 244 245 247 249 251 251 251 250 251 252 255 256 257 258 259 260
195 207 187 179 180 188 198 202 212 220 217 228 222 216 232 205 208 228 184 183 198 228 274 288 277 272 263 256 250 242 242 247 243 238 238 235 236 237 238 238 234 244 255 255 252 252 249 242 239 240 240 241 242 242 243 244 244 244 242 241 241 242 243 244 244 243 243 246 248 248 247 248 249 250 252 254 254 252 250 251 252 254 254 254 255 255
190 180 179 182 186 191 198 200 207 215 213 224 224 222 230 203 213 246 151 178 215 226 256 286 278 268 251 241 241 235 232 239 241 238 234 227 232 241 242 242 244 248 254 256 253 251 251 247 241 240 241 241 242 243 244 244 245 246 245 244 243 243 244 245 247 247 245 245 247 247 247 247 247 247 248 250 251 251 250 250 250 251 253 253 253 252
189 164 171 185 192 194 199 200 202 206 213 221 222 225 235 224 217 209 151 193 249 232 198 260 273 269 240 232 235 231 225 230 231 227 224 220 228 240 244 247 251 253 254 255 255 249 250 250 245 242 241 243 246 248 248 247 246 246 246 245 244 243 244 245 246 247 246 245 246 246 246 246 246 247 247 248 250 251 252 252 252 252 253 254 254 253
184 168 176 190 191 193 201 205 200 200 217 227 212 213 228 242 226 207 206 230 266 283 143 223 270 277 295 268 246 232 229 232 228 220 217 218 221 228 236 244 249 250 251 253 253 249 249 251 248 245 245 247 252 253 251 248 246 245 244 243 243 243 243 245 246 247 247 246 245 247 248 250 250 250 251 252 252 253 254 255 255 254 253 254 255 255
164 174 183 190 188 194 202 203 197 197 213 231 153 186 211 225 218 213 230 239 282 336 262 201 244 278 285 273 243 227 229 234 231 227 221 218 218 216 223 237 244 245 247 249 251 250 250 252 252 251 251 252 253 254 252 249 248 247 244 243 242 242 243 244 246 247 248 247 247 248 249 251 252 252 253 253 253 254 255 254 254 255 256 255 255 255
160 176 182 186 190 198 201 199 188 190 207 238 96 161 192 210 212 207 236 246 297 337 262 203 155 260 271 256 229 223 224 231 232 234 231 224 221 217 220 233 242 245 245 245 248 251 251 252 253 254 255 256 255 255 254 252 251 249 247 245 243 242 243 244 245 246 247 248 248 249 250 251 252 253 254 253 253 254 254 254 253 254 257 257 255 255
167 181 180 182 191 198 197 199 190 193 202 141 126 131 133 165 172 181 249 261 271 268 255 220 170 242 275 265 234 224 224 231 235 237 235 230 226 221 222 232 241 244 246 245 245 248 251 252 253 255 255 257 258 258 258 254 250 248 246 245 243 242 242 244 245 245 247 248 247 248 249 250 251 253 254 253 253 252 253 254 253 253 256 257 256 255
122 157 180 187 205 201 182 176 187 186 159 129 135 126 117 134 125 152 250 287 264 255 248 214 198 221 278 265 225 223 220 220 232 240 239 235 233 227 222 228 236 239 242 245 244 244 248 250 252 254 254 256 258 258 258 256 252 248 246 243 242 241 240 242 244 245 246 248 248 248 248 249 250 252 253 254 254 252 251 252 253 254 255 256 255 254
138 154 181 171 191 183 151 112 105 142 144 146 153 146 136 134 126 195 200 169 245 253 242 198 200 208 234 241 200 204 171 203 230 242 240 238 240 238 228 225 231 233 236 242 244 244 245 249 252 252 252 253 255 257 258 256 253 250 247 245 242 241 239 240 241 243 245 246 248 248 248 249 250 251 253 255 255 254 252 251 250 251 254 255 254 252
157 169 162 127 171 183 151 132 119 128 160 178 170 166 174 156 157 225 216 213 242 237 134 149 183 220 242 249 241 246 242 228 231 238 243 248 251 251 237 222 226 230 236 242 245 247 247 251 254 254 254 254 255 258 257 255 253 250 249 248 245 243 241 240 241 242 242 243 246 247 248 248 249 251 253 254 255 255 254 252 249 248 251 253 254 253
155 186 165 150 190 201 181 167 165 160 176 184 176 178 188 168 178 226 222 226 244 204 134 121 120 257 265 255 239 248 252 241 237 240 249 255 255 260 262 253 249 246 246 246 247 251 253 257 259 258 259 260 260 259 257 255 254 252 252 251 249 246 243 243 242 243 243 242 244 245 247 248 249 250 250 251 253 254 254 254 251 250 252 253 254 254
162 201 194 175 172 188 198 197 160 136 155 183 189 192 196 193 205 228 223 223 218 109 132 148 168 244 259 44 245 255 259 250 249 252 261 266 258 260 266 268 270 266 261 260 260 262 264 265 262 258 257 259 262 262 259 256 255 255 254 253 252 250 247 245 245 244 244 243 243 244 245 247 248 248 247 248 250 252 254 254 254 253 254 254 254 255
169 191 175 163 157 174 190 200 147 133 157 188 187 204 215 221 233 256 277 236 95 62 184 184 227 253 277 324 288 264 251 243 247 246 245 255 256 258 264 268 270 272 271 269 269 268 266 264 260 255 251 251 255 258 256 254 253 255 256 255 253 252 250 249 247 247 246 245 244 243 243 245 247 245 244 245 248 250 252 254 256 257 256 256 255 255
178 162 128 124 145 177 188 196 163 154 167 179 187 206 204 251 257 239 205 90 346 273 223 174 234 259 267 280 254 229 237 236 230 228 222 233 241 242 254 261 264 268 268 263 263 264 263 260 255 251 246 242 243 245 248 249 250 253 258 260 257 254 253 252 251 250 250 249 248 247 245 245 246 244 243 244 247 250 251 252 256 258 257 256 256 256
175 111 80 148 150 169 176 175 176 177 157 159 191 190 118 39 313 250 238 177 205 255 242 178 225 240 228 249 212 205 226 232 222 220 218 222 219 225 249 256 256 262 263 260 260 262 265 261 253 248 242 237 234 235 238 242 245 249 255 259 259 257 256 255 254 253 252 252 251 249 248 248 249 248 247 247 248 249 250 250 253 255 256 257 258 257
165 110 41 211 148 147 132 152 181 199 188 164 199 166 148 226 222 200 230 234 209 238 259 216 220 233 227 222 171 192 218 230 231 229 226 220 207 215 242 247 253 271 271 269 267 264 266 259 249 247 243 237 234 234 236 239 242 245 249 253 256 257 259 259 258 256 254 251 249 247 247 248 250 251 251 251 250 249 250 251 253 255 256 258 258 258
164 140 128 202 139 134 154 184 189 189 178 325 263 184 197 247 223 200 215 238 231 235 260 244 210 229 223 209 198 193 195 205 211 215 226 228 216 212 226 239 261 276 274 271 270 266 265 258 247 246 244 243 241 239 238 239 241 243 246 250 253 256 259 259 259 260 257 253 250 248 248 249 252 253 254 255 255 255 255 255 257 257 257 257 256 255
163 168 136 141 143 151 178 202 200 191 182 180 194 194 196 201 257 250 225 225 242 242 254 252 242 251 187 186 203 200 191 198 201 202 224 219 202 202 220 247 268 278 277 274 270 265 263 261 254 248 245 247 243 237 234 234 236 240 243 246 249 250 253 254 256 259 258 255 254 254 255 255 256 258 259 260 261 261 261 260 260 260 258 256 253 251
172 166 138 143 171 185 192 195 182 198 196 192 194 195 194 192 191 223 221 209 217 242 262 265 269 282 126 174 202 198 208 227 233 247 236 200 171 184 220 254 272 281 278 273 267 257 252 251 246 241 240 241 234 226 225 227 232 239 243 246 249 251 255 256 257 259 257 256 256 257 258 258 259 260 260 261 261 261 261 260 259 259 257 254 251 247
90 117 130 140 165 172 136 68 39 355 236 203 203 205 201 197 197 210 221 194 187 222 311 307 284 293 120 168 181 174 187 156 109 230 239 184 170 213 243 261 271 275 267 261 259 243 226 220 220 224 225 224 223 223 227 235 241 246 249 252 254 257 260 261 263 264 263 263 262 262 262 260 261 261 260 261 260 259 259 258 257 257 255 252 249 247
90 114 123 111 115 108 77 79 58 19 335 207 208 210 205 205 205 209 230 161 187 210 198 238 258 240 121 135 147 116 127 107 104 172 195 298 287 283 276 264 260 257 246 245 235 199 184 183 185 192 196 201 216 225 235 244 251 254 257 261 262 265 266 268 270 271 271 272 269 268 267 265 265 264 262 262 262 260 259 258 257 256 254 252 249 247
168 146 138 130 142 152 138 176 202 201 219 216 208 205 207 211 207 192 44 265 231 220 198 219 248 235 138 104 312 291 205 191 163 173 226 263 271 277 267 249 237 227 214 201 173 155 152 149 148 155 163 174 197 214 232 246 254 262 269 272 274 273 270 269 271 272 271 270 270 268 267 267 265 264 263 262 261 261 259 257 256 255 254 253 249 246
163 156 159 157 162 177 185 192 191 190 202 212 209 205 202 206 204 190 176 227 234 219 190 212 252 258 124 170 223 212 219 222 177 170 228 239 237 243 234 221 214 208 195 173 153 140 133 129 125 124 127 130 153 206 258 266 267 272 274 276 275 268 267 269 269 270 269 267 269 269 268 269 268 267 266 262 260 259 258 256 255 253 252 251 248 245
151 169 179 184 182 185 186 155 118 127 155 187 204 201 188 190 204 202 194 220 227 223 209 224 242 248 217 191 207 203 207 220 193 174 198 221 230 235 219 208 209 205 193 168 149 139 132 127 121 117 119 113 291 283 284 280 273 271 270 269 268 264 263 265 265 266 269 269 270 272 271 272 271 270 268 266 263 260 257 256 254 252 251 249 246 243
144 186 187 201 202 197 185 144 133 138 168 186 188 189 184 185 199 202 206 219 215 211 235 233 229 238 232 186 196 202 195 208 206 184 189 210 226 220 199 197 207 207 192 173 158 150 145 142 140 142 169 266 282 279 277 275 268 265 267 266 267 268 264 264 267 268 270 272 273 274 275 274 274 273 273 272 269 265 262 259 255 253 252 249 246 242
159 199 193 201 206 206 198 167 159 160 180 183 178 186 187 187 198 207 217 227 213 208 238 233 212 227 230 197 194 195 187 202 198 177 185 199 202 198 186 177 189 211 210 197 181 168 168 177 191 220 253 281 289 280 272 271 266 260 262 263 263 266 265 265 269 270 270 274 276 277 278 276 275 275 276 277 275 273 269 264 260 257 253 250 247 242
184 207 196 197 206 209 198 179 176 173 177 180 183 190 189 189 200 207 219 229 220 221 238 239 220 229 227 207 207 197 187 193 170 158 185 195 184 183 190 191 200 224 235 228 213 195 196 219 242 252 262 281 299 289 271 263 260 254 254 256 258 261 264 265 269 271 274 278 280 280 279 278 276 275 275 277 278 276 273 268 264 259 253 250 245 238
191 205 191 188 206 208 194 193 193 182 179 185 189 191 190 193 201 208 219 224 218 227 240 244 250 251 232 206 216 207 193 176 155 171 190 190 192 204 219 228 234 246 258 255 241 229 231 247 257 260 262 274 297 300 274 252 246 246 249 255 259 262 265 267 270 274 278 280 279 279 279 278 277 275 275 276 276 276 273 269 265 257 249 245 240 234
192 201 182 181 209 210 181 173 186 169 170 190 195 193 192 196 203 208 218 220 209 222 235 239 249 252 208 180 208 212 205 203 216 222 211 208 221 229 231 238 251 262 268 267 254 246 247 252 259 266 268 271 289 298 273 243 234 241 250 258 263 266 268 270 273 276 277 276 275 274 275 276 276 276 276 276 275 273 270 265 261 253 246 242 237 233
185 190 173 180 206 202 150 149 148 114 135 206 206 197 194 198 204 211 223 224 215 218 224 227 235 232 166 179 203 211 212 217 224 227 227 229 233 236 242 253 265 267 265 262 253 246 249 254 262 273 275 275 284 286 260 234 234 244 254 262 269 272 275 276 276 276 274 273 271 270 272 273 275 277 277 278 277 273 269 266 260 253 246 241 239 238
183 191 175 177 197 166 131 133 128 149 210 229 213 194 195 196 199 210 223 222 219 220 223 229 233 218 178 190 201 208 213 217 222 226 231 238 243 251 259 262 263 262 259 257 253 251 255 263 269 275 278 280 282 273 247 235 241 250 258 267 273 276 279 279 277 275 272 269 268 267 269 272 273 275 275 275 275 272 269 266 260 253 247 241 239 240
181 189 180 180 189 154 140 134 150 206 225 230 167 169 189 197 202 213 226 228 223 220 223 232 236 223 197 194 197 210 219 219 223 230 231 236 242 248 252 254 255 256 255 256 257 260 264 269 273 276 279 281 276 261 246 242 247 254 260 268 273 275 277 277 276 274 270 267 267 268 271 274 275 276 276 274 274 273 270 266 262 256 250 244 240 240
176 179 182 186 162 136 159 167 192 222 225 166 115 156 177 197 206 212 231 238 230 222 222 230 232 225 215 199 193 206 216 215 221 229 229 232 238 241 244 249 252 253 255 258 262 266 270 273 275 277 278 275 267 260 257 253 253 257 262 267 272 274 275 274 272 271 268 267 268 270 271 275 277 279 280 277 274 274 271 268 265 260 255 250 245 242
182 178 178 180 166 168 181 187 217 264 301 204 218 189 179 192 196 199 227 244 232 221 224 229 228 221 217 204 173 165 177 197 224 236 234 234 240 245 246 249 253 254 257 261 264 268 271 273 275 276 275 267 262 263 262 258 257 259 262 267 271 273 272 268 265 265 266 267 269 270 270 272 274 275 276 277 276 274 272 269 265 260 256 253 251 248
210 191 181 178 183 182 174 185 221 252 244 228 215 192 187 193 185 187 223 253 233 210 215 224 225 215 211 198 153 139 153 211 257 251 246 240 240 247 250 250 252 256 259 262 265 267 270 272 272 273 271 264 260 260 259 259 259 261 265 267 269 269 266 263 262 263 264 264 264 264 264 264 266 267 269 273 277 279 277 274 269 264 259 255 253 251
322 230 188 181 185 175 171 189 196 212 241 239 214 183 187 188 165 134 202 258 245 206 202 213 216 209 204 189 163 153 180 237 242 254 255 249 240 245 251 251 254 259 262 264 266 268 270 270 268 268 266 260 259 259 260 262 263 263 265 265 263 262 259 257 257 256 257 258 258 261 264 266 269 272 273 275 280 282 282 280 276 271 266 262 260 257
246 205 194 193 192 181 180 195 198 224 245 236 196 179 178 168 144 119 202 251 241 188 195 209 211 207 200 185 175 176 200 216 232 251 256 252 240 243 249 250 253 259 261 262 265 265 264 263 261 260 259 257 258 259 260 261 260 259 260 257 254 253 250 248 250 250 253 258 262 267 275 278 280 283 281 279 277 277 277 276 274 271 267 264 264 263
200 196 194 194 197 191 190 198 219 242 244 195 156 160 153 145 145 177 217 237 164 164 196 208 205 203 198 187 183 195 215 225 233 243 250 249 244 245 246 246 247 250 252 255 258 257 254 253 251 250 251 251 252 253 252 251 250 249 249 246 243 242 239 237 237 237 241 250 262 277 291 297 298 297 293 290 286 282 280 278 275 271 266 262 262 261
175 178 194 199 198 196 200 207 245 260 220 149 142 147 145 148 192 208 194 125 121 166 196 203 199 199 198 196 198 208 221 229 233 237 243 248 250 249 246 241 239 239 244 250 253 250 245 243 241 240 239 238 237 237 237 238 239 238 235 229 222 215 207 199 192 189 193 202 238 293 310 319 319 316 312 309 305 300 297 292 286 282 277 272 268 265
177 172 184 202 193 184 201 200 226 263 195 149 144 152 159 174 220 174 128 93 140 172 189 197 200 200 200 204 209 215 226 232 232 234 239 242 245 247 244 238 232 234 244 250 250 245 237 231 228 225 224 223 223 225 227 226 225 218 209 202 194 185 181 179 180 184 186 191 219 313 332 332 329 325 320 316 312 309 306 302 297 292 287 283 280 276
182 173 175 199 184 174 200 197 206 284 159 149 149 170 188 183 130 141 149 147 161 173 182 192 200 203 204 209 214 220 227 233 234 234 234 235 237 237 236 236 236 242 249 246 237 231 222 217 215 211 212 214 214 217 217 212 206 199 193 190 186 183 186 186 187 189 186 187 202 240 308 316 317 311 309 307 305 304 304 303 300 297 295 291 288 284
192 190 188 195 189 190 213 207 198 325 160 165 170 185 190 191 182 161 174 182 177 181 188 192 197 201 203 209 216 221 226 233 235 233 229 229 232 232 233 237 241 245 246 231 219 214 207 205 205 204 207 209 209 210 206 200 196 194 192 192 191 191 194 193 194 198 200 205 214 222 239 259 271 279 285 290 293 296 298 299 300 300 299 297 293 289
196 194 195 198 196 206 235 236 223 235 183 184 189 190 190 197 203 194 192 196 193 194 194 191 191 193 197 208 215 220 226 232 234 231 227 227 228 229 232 237 239 237 227 211 205 205 200 201 203 204 207 208 205 203 199 195 196 198 197 199 199 201 204 204 206 212 213 218 224 227 235 245 253 262 270 276 283 289 292 295 297 299 299 298 294 292
191 192 201 205 185 195 225 233 221 203 185 195 203 203 198 202 208 215 217 205 193 194 191 186 192 199 204 213 219 223 229 232 230 228 225 225 226 227 231 234 232 223 210 201 203 205 203 206 208 205 206 205 202 201 199 198 201 203 204 207 208 210 213 214 217 223 225 227 230 232 237 244 250 258 266 271 277 283 288 291 293 295 297 297 294 293
183 184 197 208 199 205 227 230 215 200 196 203 210 213 210 209 212 219 225 223 209 200 199 202 211 216 219 226 230 231 232 232 231 229 228 228 228 227 227 223 215 206 201 202 206 206 205 208 207 205 205 204 202 203 203 204 207 209 212 215 217 218 221 222 225 229 229 230 234 237 243 249 255 263 272 277 282 288 291 291 293 294 295 296 293 291
147 170 191 205 211 228 243 230 200 201 210 212 211 211 212 214 215 218 225 230 230 225 224 226 229 230 232 234 232 231 232 233 233 231 230 228 223 218 212 205 199 198 201 203 203 204 205 204 203 203 204 204 205 207 208 209 213 216 218 221 222 223 224 224 226 229 231 234 239 245 251 258 265 272 280 285 289 292 294 294 295 295 295 295 293 291
146 178 195 197 202 225 235 219 198 202 222 215 208 209 211 213 215 218 224 228 230 231 233 235 237 238 235 230 228 230 230 228 225 224 220 213 206 202 200 196 195 197 201 201 200 202 202 200 201 203 205 207 210 211 212 216 219 221 223 225 225 225 225 225 227 230 233 239 245 250 255 261 269 276 281 287 289 290 292 292 293 293 294 293 292 292
189 194 189 190 203 220 225 217 203 210 244 227 204 208 211 213 215 219 223 226 229 232 235 239 243 239 230 224 227 228 224 218 216 212 204 197 197 198 196 195 197 198 198 199 199 199 198 198 201 203 207 211 213 215 217 221 222 224 225 225 225 226 227 229 231 234 239 246 252 258 265 270 275 281 284 287 289 290 290 292 292 295 297 297 296 294